STARLINK-31656, 60286

Orbit data source: Space-Track

STARLINK-31656, 60286 is a payload satellite owned by SpaceX/Seattle (US) in LEO that was launched on Sun, 28 Jul 2024 UTC via an FALCON 9 launch vehicle from the Air Force Eastern Test Range (AFETR). Payload-class satellites include a variety of spacecraft equipped with specific instruments for various scientific and technological missions. These include communications satellites like Starlink; space stations such as the ISS; scientific satellites like the Hubble; Earth observation satellites from companies like Planet Labs, Umbra, and HawkEye 360; GPS; miniature CubeSats for education and research; and military/defense satellites.

Loading next visibility...
Identifier
60286, 2024-132J
Orbit
LEO
Last TLE update
1 day ago
Origin
Manufacturer
SpaceX/Seattle
Mission
Operational spacecraft
Bus & Motor
STARLINK V2M, Unknown motor
Mass
730 kg wet, ~700 kg dry
Launch date (UTC)
2024-07-28 (11 months ago)
Launch vehicle
FALCON 9
Launch site
Air Force Eastern Test Range (AFETR)
Object type
Payload
Rocket body
Debris
Shape & HBR
Unknown
Radar Cross Section
Large (>1 m²)

Expand to show TLE details & history

TLE from 1 day ago
0 STARLINK-31656
1 60286U 24132J   25181.31384655  .00000898  00000-0  42452-4 0  9992
2 60286  53.1596 144.4767 0001273  85.0194 275.0952 15.30195327 52920
Epoch: 2025-06-30T07:31Z
TLE epoch observation values (Epoch: 2025-06-30T07:31:56.341Z)
Latitude
-0.00005°
Longitude
112.86647°
Altitude
476.051 km
Speed
7.629 km/s
True Right ascension
09h 37m 54s
True Declination
0° 00' 00"
Sunlit
Object was in daylight at epoch
Visualization orbit readout
Latitude
2.5949°
Longitude
-74.07287°
Altitude
475.796 km
Speed
7.629 km/s
Apparent Right ascension
21h 32m 33s
Apparent Declination
-62° 28' 01"
Sunlit
Object is in full shadow
Visualization observer readout
Local Sidereal Time
21:01:11
Azimuth
176.293° S
Elevation
-12.578°
Doppler factor
1
Orbital elements
Apogee altitude
476.358 km
Perigee altitude
474.613 km
Semi-major axis
6,853.623 km
Eccentricity
0.00013
Inclination
53.1596°
RAAN
144.4767°
Arg. of periapsis
85.0194°
True anomaly
Unknown
Mean anomaly
275.0952°
Eccentric anomaly
Unknown
Mean motion
3.82528 °/min
Orbital period
94.11 mins
BSTAR
0.000042452
Loading maneuver chart data...
Loading SW <> Apogee altitude chart data...
Loading historical data...
Loading historical data...
Loading historical data...
Loading historical data...
Loading historical data...
Loading historical data...
Loading historical data...

STARLINK-31656 Visibility forecast

Observer location: undefined°, undefined°

Span
Click to sort rows by Start time (UTC) header in descending order
Start Az.
Max El. time (UTC)
Max El. Az.
Max El.
End time (UTC)
End Az.
4 mins2025-07-01 22:52:54.624Z167.377° S2025-07-01 22:54:54.624Z126.575° SE19.132°2025-07-01 22:56:54.624Z87.783° E
5 mins2025-07-02 00:30:54.624Z267.037° W2025-07-02 00:32:54.624Z348.829° N34.739°2025-07-02 00:35:54.624Z39.796° NE
4 mins2025-07-02 05:27:54.624Z352.277° N2025-07-02 05:28:54.624Z14.873° NNE21.49°2025-07-02 05:31:54.624Z77.656° E
6 mins2025-07-02 07:04:54.624Z297.06° NW2025-07-02 07:07:54.624Z194.511° SSW37.219°2025-07-02 07:10:54.624Z147.32° SSE
|